Wind_Speed
63 62 58 54 53 54 55 55 55 55 56 56 55 56 56 57 57 57 56 56 55 54 54 55 55 51 46 43 41 41 42 42 42 40 36 33 33 33 34 43 52 56 57 58 59 60 60 59 58 57 56 55 55 54 54 53 53 52 52 51 51 50 49 48 48 48 48 47 46 45 44 42 40 38 36 34 33 34 35 36 37 37 36 35 36 37
66 60 55 54 55 57 57 57 57 57 57 57 55 55 56 56 57 57 57 56 55 55 55 56 56 52 47 45 42 41 40 41 40 35 30 29 29 31 36 46 53 53 53 54 54 55 56 58 59 59 58 57 56 55 55 55 54 54 53 52 52 51 51 50 49 49 50 49 48 47 46 44 42 40 38 36 35 36 37 38 38 38 37 38 38 38
65 58 55 56 57 58 59 59 58 58 59 58 56 55 55 55 56 57 56 56 55 55 55 56 57 52 48 45 43 42 41 40 37 31 29 27 26 32 40 48 52 50 49 50 50 50 52 54 56 58 59 59 58 58 57 56 56 55 54 54 53 53 52 52 52 51 51 50 50 49 48 47 45 43 42 40 39 39 40 41 40 40 40 40 41 41
63 60 58 58 59 60 60 60 59 59 59 58 56 56 55 55 56 57 57 56 56 56 55 57 57 53 48 45 43 42 41 39 35 30 32 34 34 38 42 45 49 47 47 48 48 48 49 50 52 55 57 59 59 59 58 58 57 56 55 55 55 54 54 54 54 54 53 52 51 50 50 49 48 47 46 45 44 42 43 44 44 44 43 43 43 42
63 63 63 61 61 61 61 61 60 59 59 58 57 56 56 56 57 58 58 57 57 57 56 57 57 52 47 45 43 42 42 40 36 34 37 40 37 35 38 44 49 49 49 49 48 48 48 49 49 51 54 57 59 59 59 59 58 57 56 56 56 55 56 56 56 56 55 54 53 52 52 51 51 49 49 49 48 46 45 46 47 46 45 45 44 43
63 65 66 65 63 63 62 62 61 60 60 58 57 56 56 57 58 60 60 60 59 58 58 58 55 50 47 45 44 44 43 41 39 38 41 41 36 33 36 43 49 51 52 51 48 47 48 49 49 50 53 55 57 58 59 59 58 58 57 57 57 57 57 57 57 57 56 56 55 54 54 53 52 51 50 50 50 49 48 48 48 47 46 45 44 43
63 65 67 67 65 64 64 63 62 62 61 60 57 57 58 59 60 62 62 62 61 59 59 57 52 49 48 46 46 46 45 44 43 42 42 41 39 39 42 45 46 45 45 45 45 45 47 49 50 50 52 53 55 56 58 58 58 58 58 58 57 57 58 57 57 57 57 57 56 56 55 54 53 52 51 50 49 49 49 48 48 47 47 45 44 43
61 64 68 68 66 65 63 62 63 63 63 61 59 60 60 61 62 63 64 63 61 60 58 54 50 49 48 47 47 48 46 45 45 45 44 43 44 46 46 48 52 50 44 40 39 40 41 44 48 51 52 52 53 54 55 56 57 58 58 58 58 58 58 58 58 58 58 57 57 56 56 54 53 52 51 50 49 49 48 48 48 48 47 46 44 43
61 63 67 70 68 65 63 62 63 64 64 62 62 62 62 63 64 64 65 64 61 60 57 52 50 49 47 47 48 47 46 46 46 47 47 48 49 49 44 43 52 55 52 47 42 40 39 40 42 47 51 51 51 51 52 53 54 56 57 57 58 58 58 58 59 59 58 58 58 57 56 55 53 52 51 51 50 49 49 49 49 48 48 47 46 45
63 62 68 72 70 67 64 64 64 64 64 63 64 65 64 65 66 67 67 64 62 59 52 49 48 46 45 46 46 45 45 46 46 48 50 52 53 53 48 44 47 49 51 52 49 46 46 43 41 43 47 49 49 49 49 50 51 53 55 57 58 59 59 60 60 60 59 59 59 58 57 56 54 54 53 52 52 51 50 50 50 49 49 48 48 47
63 64 68 73 72 69 67 67 66 65 65 65 66 67 67 67 68 68 67 64 62 55 47 46 47 44 43 43 42 42 43 45 47 49 51 55 57 56 53 46 41 43 48 50 49 47 47 46 42 40 42 45 46 47 47 47 49 50 53 55 57 58 59 60 61 60 60 60 60 59 58 57 56 55 55 54 54 53 52 52 51 51 51 51 50 50
64 64 67 72 73 71 70 69 68 67 66 66 67 68 68 68 69 69 67 64 58 48 45 48 48 44 40 39 39 40 42 45 46 49 52 57 60 60 55 46 38 40 45 46 47 46 45 46 44 40 40 42 44 45 46 46 47 48 50 52 54 56 58 59 60 60 60 60 60 59 58 57 57 57 56 56 55 55 54 53 53 52 52 52 51 51
63 63 65 71 75 73 71 70 69 69 67 66 68 69 68 68 69 68 64 60 51 45 48 51 48 43 38 36 38 39 40 43 45 49 53 57 61 61 56 50 47 47 46 45 47 47 46 46 44 41 41 42 42 44 44 45 46 47 48 50 51 54 55 56 57 58 59 59 58 58 58 57 57 56 56 56 55 54 54 53 53 52 52 51 51 50
63 63 64 69 74 74 72 70 69 67 65 64 66 67 65 66 66 63 59 54 48 47 51 52 47 42 37 36 38 38 39 43 45 48 51 54 59 61 58 52 51 53 52 49 49 50 50 49 48 47 46 45 44 43 43 43 45 46 47 49 50 52 52 53 53 55 55 55 56 56 56 56 55 55 55 54 53 53 52 52 51 51 50 50 50 50
62 60 61 66 72 73 72 70 69 68 65 64 66 66 64 63 62 59 56 52 49 49 53 53 46 37 33 36 38 38 40 42 44 47 49 51 54 58 58 54 52 55 58 57 54 53 54 53 54 54 51 49 47 46 45 45 46 47 48 49 50 51 51 51 51 51 51 52 52 53 53 53 53 53 52 51 51 50 50 49 49 49 49 50 50 50
61 59 59 65 71 73 73 72 71 70 68 67 68 68 64 62 62 60 57 54 52 52 55 52 43 34 33 36 38 39 39 40 43 45 46 48 50 51 49 49 49 50 55 59 60 61 61 59 57 56 53 51 50 48 48 48 48 48 49 49 51 51 50 50 50 49 49 49 49 50 50 50 50 50 49 49 49 48 49 49 49 50 50 50 50 50
60 59 61 66 70 72 73 72 71 70 68 67 68 65 61 62 64 61 58 56 55 55 56 51 42 37 37 37 38 39 39 39 41 42 44 46 47 45 41 39 40 44 51 56 59 62 64 63 62 59 55 52 50 48 48 48 48 48 49 50 50 50 50 49 49 48 47 47 48 48 48 47 48 48 48 48 48 49 49 50 51 51 51 50 50 50
60 60 62 66 70 72 72 72 72 71 68 66 64 62 62 66 65 62 59 58 57 55 54 50 43 39 39 37 37 38 37 37 37 39 43 44 45 47 45 36 33 40 48 50 51 54 58 60 61 60 57 53 50 47 47 48 48 48 49 49 50 50 49 49 49 48 47 47 48 47 47 47 48 48 48 49 49 50 50 51 51 50 50 50 50 49
62 61 62 66 70 73 74 73 72 71 68 65 65 66 68 68 65 61 60 57 55 54 53 49 43 39 37 36 36 37 36 36 37 41 43 45 48 52 52 45 38 34 31 31 37 43 46 51 56 58 56 53 49 46 46 47 47 48 49 49 50 50 49 49 48 48 48 48 48 48 48 48 48 48 49 49 50 50 51 51 50 50 50 49 48 47
63 62 62 65 69 74 75 75 72 69 67 67 69 71 70 67 64 61 59 57 55 54 52 50 45 39 37 36 36 37 37 38 41 45 48 50 52 56 59 59 55 47 37 32 34 36 38 42 48 53 54 52 49 47 47 48 48 48 49 49 49 49 48 48 47 48 48 49 49 49 49 49 49 49 49 50 51 51 51 51 51 50 49 48 47 47
63 63 63 64 68 72 73 72 70 68 69 69 69 69 67 64 63 62 60 58 56 53 52 51 45 39 39 40 39 39 41 42 44 47 51 53 54 57 60 64 65 63 58 52 47 45 45 47 49 52 53 52 50 49 49 50 49 49 49 48 48 48 47 47 47 47 47 48 48 49 49 49 50 50 51 52 53 53 52 51 50 49 48 47 47 48
62 62 63 63 64 66 68 70 70 71 71 69 68 67 65 64 64 64 61 57 55 53 51 50 45 42 44 43 42 44 45 44 44 47 52 54 54 55 57 61 64 65 63 60 56 54 54 54 55 55 54 52 51 51 51 51 50 50 49 48 48 47 46 46 45 46 46 46 47 47 49 50 51 52 53 54 54 53 52 51 50 50 49 49 49 50
62 61 62 62 62 64 69 72 73 73 73 72 71 69 68 67 67 65 60 57 56 54 51 50 46 45 47 46 45 47 47 46 45 46 51 56 56 55 55 57 59 60 58 55 54 55 55 56 56 55 53 52 51 52 52 51 50 49 48 48 47 47 46 45 45 45 46 46 47 47 49 50 52 53 53 53 53 53 52 52 51 51 51 52 53 53
61 61 61 61 63 67 71 72 73 74 75 74 72 71 70 68 66 64 61 60 60 57 54 51 48 47 48 47 47 48 47 46 46 45 49 55 58 57 56 56 56 56 56 53 52 53 54 55 55 53 51 51 51 52 52 51 50 49 49 49 48 47 46 45 45 46 46 46 47 48 49 50 50 51 51 52 52 52 52 52 52 53 54 55 55 54
60 61 60 60 63 67 71 72 73 74 74 72 70 69 68 67 66 66 64 65 64 60 56 53 50 49 50 49 49 49 48 47 46 45 47 52 57 59 57 56 55 55 55 54 54 53 52 52 53 52 51 51 52 52 52 51 50 50 50 50 49 48 47 47 47 47 47 48 48 48 49 49 50 50 50 51 52 52 52 53 53 54 55 56 56 55
60 60 59 60 63 66 68 69 70 70 69 68 68 67 67 67 67 66 66 66 63 58 56 53 50 50 51 51 50 50 49 48 47 47 48 50 55 58 58 55 55 55 55 55 55 54 51 50 50 50 50 51 52 53 53 52 51 52 52 52 51 50 49 49 48 48 48 48 49 49 50 50 50 51 52 52 53 53 53 54 54 55 55 56 56 55
58 58 59 60 63 65 67 67 68 68 68 67 66 66 65 65 66 66 67 65 61 58 56 53 51 51 52 51 51 50 49 49 49 49 50 51 54 57 58 56 54 55 56 56 56 55 52 50 49 50 51 51 52 53 54 53 52 53 53 53 52 51 50 49 48 48 49 49 50 50 50 50 51 52 53 54 54 54 54 54 55 55 56 56 56 57
55 56 58 60 63 65 66 66 67 67 66 65 65 65 65 65 66 66 65 62 59 58 55 52 52 53 52 51 51 51 50 50 51 51 51 51 53 55 57 56 54 55 55 56 56 55 53 51 49 50 51 50 50 53 54 54 54 54 54 53 52 51 50 49 49 50 50 51 51 51 51 52 52 53 54 54 54 54 55 55 56 56 57 57 57 58
53 55 57 59 62 65 66 65 65 65 64 63 63 63 64 64 65 64 62 59 59 57 54 53 53 54 53 53 53 52 51 51 52 52 51 50 51 53 55 55 54 54 54 54 54 53 51 50 49 50 51 50 50 52 53 53 54 53 52 52 51 50 50 50 51 51 51 51 52 52 52 52 52 53 53 54 54 55 56 56 57 57 58 58 58 59
53 56 57 58 62 64 65 64 64 63 63 63 63 63 63 64 64 64 62 61 60 58 56 55 55 55 55 55 54 53 52 52 52 51 49 48 48 51 53 54 54 53 52 51 51 51 50 50 49 50 50 51 51 52 51 51 51 51 50 50 50 51 51 52 52 51 51 51 51 51 51 51 52 53 54 55 56 56 57 57 58 58 59 59 60 60
53 55 56 58 61 62 63 63 63 63 63 63 63 63 64 64 64 64 63 62 61 58 57 56 54 54 55 54 53 52 51 51 51 50 48 47 47 50 53 54 53 52 52 51 50 51 51 50 49 49 49 50 50 50 50 51 50 49 48 48 50 51 52 52 52 51 51 51 50 51 51 52 53 54 55 56 57 57 58 58 58 59 60 60 61 62
52 54 55 57 59 60 61 62 62 63 63 63 63 63 64 64 65 64 63 61 59 57 56 54 52 52 54 54 53 52 51 51 51 50 48 47 48 50 52 52 52 52 51 51 51 51 51 50 49 49 49 48 48 49 50 51 51 50 49 49 50 52 52 53 53 52 52 52 52 52 53 53 54 55 56 57 57 57 58 58 59 59 60 61 63 64
50 52 55 56 58 59 61 61 62 63 63 63 62 63 64 64 65 64 62 60 58 57 55 53 52 53 54 54 54 53 52 52 51 50 49 49 49 49 51 51 50 51 51 51 52 52 51 50 49 49 48 46 45 47 49 50 50 52 52 51 51 51 52 53 53 53 53 53 54 54 54 54 55 56 56 57 57 57 58 58 59 60 61 63 64 65
49 51 54 55 57 60 61 62 63 63 62 62 62 62 63 64 64 63 61 59 57 56 55 54 53 53 53 54 55 54 53 52 52 51 50 49 48 48 49 50 50 50 51 51 52 51 50 49 49 48 46 44 44 46 49 50 50 51 53 54 54 53 53 53 54 54 55 54 54 54 54 55 55 56 56 57 57 57 58 58 60 61 63 64 65 66
50 52 53 55 57 59 60 61 61 60 60 60 61 62 63 63 63 62 60 58 57 56 56 55 54 54 54 54 54 53 52 52 51 50 49 48 47 46 47 49 52 52 52 51 50 49 49 48 47 46 45 45 45 46 48 50 51 51 53 55 56 56 55 55 55 55 55 55 54 54 54 55 56 56 56 57 57 57 58 59 61 62 64 65 66 67
50 51 53 54 56 57 56 56 55 55 58 60 61 62 62 62 61 61 59 58 57 57 57 57 56 55 54 53 52 51 50 50 50 49 48 48 48 49 49 50 52 52 52 51 49 48 48 48 47 46 45 45 45 46 48 50 51 53 54 55 56 56 56 56 55 55 55 55 55 55 55 55 56 56 56 57 57 58 60 61 63 64 66 67 68 68
50 51 52 53 54 53 52 52 52 54 57 59 60 61 61 59 58 58 58 58 58 58 58 58 57 55 53 52 50 50 50 50 50 49 48 49 51 52 53 53 52 52 52 51 50 49 49 49 48 47 46 46 46 46 47 48 50 53 54 54 54 55 56 56 55 55 54 54 55 55 56 56 56 56 57 58 59 60 62 63 65 66 68 69 69 70
49 50 51 52 52 51 50 50 50 51 54 57 58 58 58 56 55 54 55 55 55 55 56 56 56 54 53 51 50 51 50 50 50 50 50 52 53 53 54 54 54 53 52 52 51 51 51 50 50 48 47 47 46 45 44 46 49 52 54 52 52 54 55 55 55 54 55 55 56 56 57 57 57 58 59 60 61 63 64 65 67 68 69 70 71 71
47 48 48 48 48 48 48 47 47 49 53 56 56 55 54 53 51 50 50 50 49 50 52 53 54 53 52 51 51 51 50 50 51 52 52 52 53 53 53 53 53 53 52 52 52 53 53 52 52 51 51 51 51 50 49 50 52 54 54 53 53 54 55 56 56 56 56 57 57 58 58 59 59 60 62 63 64 65 66 68 69 70 71 72 72 72
43 43 43 44 44 44 45 46 47 49 52 53 53 51 50 49 48 45 44 44 45 47 49 51 52 51 51 51 51 51 51 51 53 52 51 51 51 51 52 52 52 52 53 52 53 54 54 54 54 54 54 54 55 55 54 54 54 55 54 54 55 56 57 58 58 58 59 59 60 61 61 62 63 63 64 65 66 67 69 70 71 72 73 73 73 73
37 37 38 40 41 42 44 46 47 48 48 48 47 44 43 44 43 40 40 41 44 46 48 49 50 50 50 51 51 51 51 52 52 50 49 50 50 51 52 52 52 53 53 53 53 55 55 55 56 56 56 57 57 56 56 55 55 55 55 55 56 57 59 60 61 61 61 62 63 64 64 65 65 65 66 67 68 69 70 72 73 73 73 73 73 72
34 34 34 35 37 40 43 46 45 44 43 42 40 37 37 38 38 39 41 43 44 45 46 47 48 49 49 50 49 50 51 52 50 49 49 50 51 51 52 52 52 52 53 53 54 55 56 56 57 57 57 57 57 57 56 56 56 56 56 56 57 58 59 61 62 63 63 64 64 65 65 66 66 67 67 68 69 71 72 73 73 73 73 72 71 70
32 31 30 30 30 32 36 38 37 37 36 36 34 34 34 35 38 40 43 44 43 44 45 46 47 48 49 49 49 51 51 50 49 49 50 50 51 51 52 52 52 52 53 54 54 54 55 56 56 57 57 57 57 57 57 57 57 57 57 57 58 58 59 60 62 63 64 64 65 65 65 66 67 68 69 70 71 72 73 73 73 73 72 71 70 70
31 30 30 29 27 26 29 32 33 34 34 33 33 35 36 37 38 40 42 43 43 44 45 46 47 48 49 50 50 51 50 49 49 50 51 51 51 51 51 51 52 52 53 53 54 54 55 55 56 56 56 56 56 56 56 57 57 57 57 58 58 58 59 60 61 62 63 63 64 64 65 67 68 69 70 71 72 72 72 72 72 71 70 70 71 72
31 32 32 33 32 31 32 33 34 34 34 34 34 36 37 38 38 39 40 41 42 43 45 46 47 48 48 49 49 49 48 49 49 50 50 50 51 51 51 52 52 52 53 53 54 55 55 55 55 55 55 55 55 55 55 56 56 57 57 57 58 58 59 59 60 61 62 62 63 65 66 68 69 70 71 71 71 71 71 70 70 69 70 71 73 74
33 34 35 36 35 35 35 36 36 36 37 37 37 37 37 38 39 39 40 41 42 43 44 45 46 46 47 47 47 47 47 48 48 49 49 50 50 51 52 53 53 53 54 54 55 55 54 54 54 54 54 54 54 54 54 54 55 56 56 56 56 57 58 59 60 61 62 63 64 66 67 68 69 70 71 70 69 68 68 68 69 70 72 73 75 77
36 37 37 36 35 34 35 36 37 38 38 39 39 39 39 39 40 40 41 42 42 42 43 44 45 45 45 45 45 45 46 46 47 47 48 49 50 51 52 53 54 54 54 54 54 53 52 52 52 52 52 51 51 52 52 53 53 54 54 54 55 56 57 59 60 61 63 64 65 66 67 68 69 69 68 67 66 66 67 68 70 72 74 76 77 78
37 38 38 38 37 36 36 36 37 38 38 38 38 39 39 40 40 41 41 42 42 41 42 43 43 43 43 43 44 44 45 45 45 46 47 48 48 48 48 48 48 49 51 51 51 50 50 50 50 49 49 49 49 50 50 51 51 51 52 53 54 56 57 59 61 62 63 64 65 66 66 66 66 65 64 65 65 67 68 70 72 74 76 77 77 76
37 38 39 39 39 38 38 38 38 38 38 39 38 38 39 39 39 40 40 40 40 40 41 41 41 41 42 42 43 43 43 43 43 44 44 43 43 42 41 41 42 44 46 47 47 46 46 46 45 45 45 45 46 47 48 49 50 51 52 54 55 57 58 60 61 62 63 63 64 63 63 62 62 62 63 65 67 69 71 73 75 76 76 75 74 73
37 37 38 38 38 38 37 37 37 37 37 37 37 37 37 38 38 39 39 40 40 40 40 40 41 41 41 41 41 41 41 40 40 39 39 38 38 38 38 38 39 41 42 42 42 41 41 41 41 41 41 42 44 45 47 48 50 52 53 55 56 57 58 59 60 60 60 60 60 60 60 60 61 63 65 67 69 71 73 74 75 74 73 72 72 71
35 35 36 36 36 35 35 35 35 35 36 36 37 37 37 37 37 38 39 39 40 40 40 40 41 41 41 40 40 39 37 36 35 35 35 34 34 33 33 35 38 40 39 38 38 39 39 40 40 40 41 43 44 46 47 49 51 52 53 55 55 56 56 56 57 57 57 57 57 58 60 61 63 65 67 69 71 72 73 72 72 72 71 71 70 69
Wind_Direction
230 230 231 232 232 232 231 230 229 229 231 233 234 235 236 236 236 235 234 234 234 235 236 237 237 235 233 231 228 227 229 232 234 235 244 259 265 265 262 257 253 251 251 252 251 250 248 248 248 249 249 250 250 251 252 253 254 255 256 258 258 258 259 260 261 261 262 264 264 266 267 269 271 274 275 276 277 281 284 282 280 280 281 284 288 292
228 228 228 229 229 228 228 228 228 228 230 231 232 234 236 236 237 237 236 236 235 235 237 238 238 236 233 232 230 229 229 231 234 235 241 256 268 271 263 256 256 256 255 255 254 253 251 249 248 248 248 249 250 250 251 252 253 255 256 257 258 259 259 261 262 262 262 263 264 266 266 268 269 269 271 274 277 280 282 282 281 281 282 285 288 291
228 226 226 227 227 227 227 227 227 227 229 230 231 233 235 236 237 237 237 236 235 235 236 238 239 236 234 233 231 231 230 230 231 228 227 234 244 250 252 252 254 257 258 257 256 255 253 251 249 248 248 248 249 250 251 252 253 254 256 257 258 260 260 261 262 263 263 264 265 266 267 267 267 267 267 269 272 274 276 278 280 281 283 286 288 290
227 224 224 225 226 226 227 227 228 228 229 230 231 232 234 235 237 238 237 236 235 235 235 237 238 236 234 233 232 231 231 230 228 221 220 224 226 235 248 257 260 261 260 258 255 253 253 252 251 250 249 248 249 250 251 251 253 254 255 257 258 260 261 261 262 263 265 265 266 267 267 268 268 267 266 267 269 270 271 274 277 280 283 285 287 290
225 223 222 223 223 225 225 226 227 227 229 230 231 232 234 235 237 238 237 236 235 235 235 236 237 236 234 233 232 230 229 228 225 218 218 219 218 228 246 258 264 266 263 258 255 253 252 252 251 250 249 249 249 249 250 251 252 254 255 256 258 260 261 262 263 264 266 267 268 268 269 269 269 268 268 268 270 271 271 272 275 279 282 284 287 289
223 222 222 222 222 222 223 224 225 226 228 229 230 232 234 235 237 238 239 238 237 236 236 237 237 236 234 232 231 229 226 224 220 218 220 216 210 217 237 252 260 263 262 259 259 259 257 253 250 249 249 248 249 249 250 251 252 254 255 256 258 259 261 263 264 265 266 267 268 269 270 270 270 271 270 270 271 272 272 273 274 277 281 283 285 287
223 221 221 222 222 222 222 222 223 225 226 227 228 230 233 235 237 238 239 239 238 237 237 238 237 236 234 232 231 230 227 222 218 218 220 214 208 215 230 245 253 256 259 259 259 262 262 258 251 248 248 248 248 249 250 251 252 254 255 256 258 259 261 263 264 265 266 267 269 269 270 271 272 272 273 273 273 273 273 273 275 277 280 283 285 286
223 221 221 222 223 223 223 222 223 224 225 226 227 229 231 234 236 237 239 239 238 237 237 238 237 236 235 233 232 232 229 225 219 218 219 213 212 220 229 242 250 253 257 257 255 256 259 260 254 249 248 248 248 249 250 251 252 254 255 257 258 260 261 262 264 265 266 267 268 269 270 271 272 273 273 274 274 274 274 274 274 277 280 282 283 284
223 221 220 221 222 223 223 223 223 223 224 225 226 228 229 232 234 236 237 238 237 237 236 236 236 235 235 235 235 234 232 230 224 220 219 215 217 222 226 240 251 251 252 254 251 249 252 258 258 254 250 249 249 250 251 252 253 254 255 257 258 259 260 262 263 264 265 267 268 269 270 271 272 273 273 274 274 274 274 274 274 276 278 280 281 281
221 219 219 219 220 220 221 222 223 223 223 223 225 226 227 230 232 234 236 237 237 236 236 236 237 236 235 235 236 236 234 232 228 223 220 217 219 222 222 235 248 248 249 253 251 250 252 254 260 261 256 251 250 251 252 253 254 255 256 257 258 259 260 261 262 263 264 266 267 268 269 270 271 272 272 273 273 274 273 273 273 274 275 277 278 279
221 219 217 218 219 219 219 220 221 222 222 222 223 224 226 228 231 233 235 237 237 237 237 237 237 235 233 234 235 234 232 230 226 222 219 217 220 222 222 232 250 256 256 256 254 253 253 253 258 261 257 253 251 250 252 254 255 256 257 257 258 259 260 260 262 263 264 265 266 267 268 269 270 271 271 272 273 273 273 274 274 274 275 276 277 278
221 220 218 217 218 218 219 220 221 221 221 221 223 224 225 227 230 233 235 237 238 238 238 238 236 233 231 231 232 231 230 229 225 221 219 218 219 222 223 225 235 248 254 255 255 256 255 253 254 256 255 255 253 252 252 253 255 256 257 258 259 260 260 261 262 263 264 265 266 267 268 269 270 271 271 272 273 273 274 275 275 275 276 277 278 279
221 221 219 217 218 218 219 220 222 223 222 222 224 226 226 227 230 233 235 238 239 238 239 239 237 233 229 228 229 229 229 229 225 223 220 218 218 221 225 223 223 231 241 247 249 251 251 248 249 254 256 257 257 256 254 254 255 257 258 259 260 260 261 261 262 263 264 265 266 267 268 269 269 270 271 272 273 274 275 276 277 277 278 279 279 280
222 222 219 218 218 218 219 220 222 224 225 225 227 228 228 230 233 236 238 239 238 237 238 239 236 232 227 226 227 226 227 228 225 224 222 220 218 221 225 225 224 228 237 245 247 249 252 251 252 257 260 259 260 260 258 257 258 259 259 260 260 260 261 261 262 262 264 265 266 266 267 268 269 270 271 272 273 275 276 277 278 279 279 280 280 280
221 223 222 219 219 219 219 220 222 223 224 225 227 229 229 231 234 237 238 238 237 236 238 238 235 230 225 225 226 223 224 227 226 224 224 222 220 222 227 229 229 233 240 248 250 251 256 258 258 259 260 260 260 261 261 262 262 261 261 260 260 260 261 261 261 262 263 264 264 265 266 267 268 269 271 272 274 275 276 278 279 279 279 279 280 280
217 219 221 219 218 218 219 219 221 222 222 223 226 228 229 231 233 233 233 233 233 234 237 237 233 226 222 223 224 223 223 226 226 224 224 223 221 221 228 235 238 241 246 252 254 254 256 259 260 260 260 259 260 261 262 264 264 263 261 261 262 262 262 262 262 263 263 264 265 265 266 267 269 270 271 273 274 275 277 277 278 278 279 279 280 281
216 217 218 217 216 217 218 219 220 222 223 224 227 229 230 231 231 231 231 231 231 231 234 235 229 221 219 220 223 222 221 224 227 226 223 222 219 214 216 230 243 249 252 254 256 256 256 257 258 259 259 259 259 260 262 262 262 261 261 261 262 263 263 264 264 264 264 265 265 266 267 268 270 271 272 273 275 276 276 277 278 279 280 281 282 284
215 217 218 216 215 215 217 218 219 221 222 224 227 230 230 231 231 231 231 231 231 232 234 234 229 222 220 219 222 224 222 223 226 227 224 221 216 208 205 215 234 247 252 254 256 258 258 258 257 257 258 257 257 258 260 261 260 260 260 260 260 262 263 263 264 264 264 265 265 266 267 269 270 272 273 274 275 276 277 278 279 280 282 283 285 286
213 215 217 217 214 215 216 216 217 219 220 222 225 227 228 231 232 232 232 233 233 234 235 236 232 226 222 220 222 225 223 221 222 223 223 220 216 211 207 209 215 225 237 246 253 259 261 260 258 256 254 254 255 255 257 259 259 259 258 258 259 261 261 262 263 264 264 265 266 267 268 270 271 272 273 274 275 276 278 279 280 282 284 286 286 287
213 213 216 217 215 215 216 216 217 218 220 221 223 225 227 229 231 232 233 233 234 234 235 236 232 226 224 223 222 225 225 221 219 219 219 219 218 215 212 214 218 221 222 229 238 245 250 252 254 254 253 253 253 253 253 256 257 257 257 258 259 260 261 262 263 263 264 265 266 267 268 270 271 272 272 273 275 277 279 280 282 284 286 286 286 287
214 213 215 216 216 216 217 217 217 218 219 221 224 227 229 230 232 233 233 232 232 232 233 235 232 227 226 224 222 224 226 224 222 220 219 219 220 220 218 220 225 229 231 236 239 240 242 246 251 255 256 255 253 252 252 254 256 256 257 258 259 260 261 261 261 263 264 265 266 267 268 270 270 272 273 274 277 279 280 281 282 284 285 286 286 286
215 215 216 216 216 216 217 217 217 217 218 219 222 226 228 230 232 233 234 234 234 233 232 233 231 227 227 225 223 224 226 225 223 222 221 220 221 223 224 226 229 233 236 241 245 246 246 249 253 256 257 256 255 253 253 255 257 258 259 259 259 260 260 261 261 262 264 265 266 268 269 270 271 273 274 276 278 279 279 280 282 283 284 285 286 286
214 216 218 217 214 214 215 217 217 218 218 218 220 222 224 226 229 231 233 234 235 233 233 233 230 228 229 226 224 226 227 226 225 224 223 222 222 224 228 230 232 234 237 240 245 248 249 250 253 255 255 255 254 254 253 254 256 257 258 259 259 260 260 262 263 264 265 266 268 269 270 271 272 273 275 276 277 277 278 279 281 283 284 285 286 287
214 216 218 217 214 212 214 216 217 218 219 220 221 222 224 226 228 230 231 231 232 231 229 229 228 228 230 229 227 228 228 228 228 227 226 224 224 226 228 231 233 235 236 238 242 247 249 250 253 254 254 254 254 254 253 253 254 255 256 257 258 259 260 261 262 263 265 266 268 269 270 271 272 273 274 275 275 276 278 280 282 283 284 285 286 286
215 217 218 218 216 214 214 215 217 219 221 222 223 224 227 228 229 230 230 231 231 229 228 227 225 225 227 228 228 228 228 229 229 230 230 228 227 227 229 231 233 234 237 239 242 246 249 251 252 253 254 255 255 255 254 253 253 253 254 255 257 258 259 260 261 263 265 266 267 268 269 271 272 273 274 275 276 277 279 281 282 283 283 284 285 286
216 217 217 217 217 216 216 216 218 220 222 223 224 226 227 229 230 232 232 233 233 231 230 228 226 226 227 227 227 227 227 228 229 230 232 231 229 229 230 233 234 236 237 239 242 245 247 250 252 253 253 254 255 255 255 254 253 252 253 254 256 257 258 260 262 264 265 267 267 269 270 271 272 273 274 275 277 279 280 281 281 282 283 284 285 286
218 219 218 216 215 215 216 217 218 219 220 221 223 225 227 230 231 233 233 234 234 233 231 229 228 228 228 227 228 227 226 227 228 229 231 232 230 229 230 233 236 237 238 239 242 244 246 249 251 252 253 254 255 256 255 254 254 253 254 255 256 258 259 261 263 264 265 266 267 268 269 270 272 273 274 276 278 279 280 281 281 282 283 284 285 286
220 221 220 217 214 214 216 217 218 219 220 221 223 224 226 229 231 233 234 234 235 234 232 230 229 229 229 228 228 228 227 227 228 229 230 231 231 230 230 232 235 238 240 241 243 245 247 249 250 251 252 253 254 255 255 255 255 255 255 256 258 259 261 262 263 264 264 266 267 268 269 271 273 274 275 277 278 279 280 281 282 283 284 285 286 286
220 220 220 217 215 215 216 217 218 220 220 222 224 225 227 228 230 232 233 234 235 234 232 231 230 230 229 228 228 227 227 227 228 229 230 232 233 232 230 232 235 238 241 243 245 247 248 249 250 251 251 251 252 254 255 256 256 257 257 258 260 261 262 263 263 264 266 267 268 269 270 272 274 275 276 278 279 280 281 282 283 284 285 286 286 286
219 218 216 215 215 216 217 218 220 221 221 222 224 226 228 230 231 232 232 232 233 233 232 230 229 229 229 229 228 227 226 227 229 230 231 233 234 233 232 233 235 239 242 245 248 250 250 250 250 251 251 251 252 254 256 257 258 259 260 261 262 262 263 264 265 266 267 268 269 270 272 273 275 276 278 279 280 281 282 283 284 285 285 286 287 287
216 216 214 214 215 216 218 219 221 222 223 224 225 227 229 230 232 233 233 232 233 232 231 230 229 229 229 230 229 228 227 228 229 230 232 233 233 233 232 233 235 238 242 245 248 250 251 252 251 252 252 252 253 254 256 257 259 261 262 263 263 263 263 265 266 266 267 268 269 271 272 274 276 277 278 279 280 282 282 283 284 285 286 287 288 289
213 213 213 214 215 216 218 220 222 223 224 225 226 228 230 231 232 233 234 234 234 233 232 230 228 228 229 229 229 228 228 227 228 229 231 232 233 233 232 233 235 237 241 245 248 251 252 252 252 253 253 254 255 257 257 257 258 260 261 262 262 262 263 265 265 266 267 268 269 271 273 274 276 277 278 279 280 281 282 284 285 286 287 288 289 290
210 211 213 214 215 216 218 219 222 223 225 226 227 229 231 232 234 234 234 234 233 233 232 230 228 227 227 227 227 227 226 226 227 228 229 231 232 233 233 233 235 238 241 245 248 250 251 251 252 253 254 256 258 259 259 258 257 257 258 259 260 261 263 264 265 266 267 268 270 272 273 274 275 276 277 279 280 282 283 285 286 287 288 289 291 292
208 210 212 214 215 217 218 219 221 223 225 226 228 230 231 233 234 235 235 234 232 232 231 229 227 226 225 225 226 225 225 225 226 227 229 230 232 233 235 235 236 238 241 244 247 248 249 250 252 253 255 256 256 258 259 259 258 257 257 257 258 260 262 264 265 266 267 268 270 271 272 273 274 276 278 279 281 282 284 285 287 288 289 290 292 293
208 211 213 215 217 218 219 221 223 225 226 227 228 229 231 232 233 234 234 233 232 231 230 228 226 225 224 224 224 224 225 225 226 228 230 231 232 234 235 237 237 238 241 244 246 247 248 250 252 254 255 256 256 258 260 260 259 258 258 258 259 260 262 264 265 266 268 268 269 271 272 273 275 276 278 279 281 282 284 285 287 288 290 291 292 293
211 213 215 217 220 222 223 224 226 228 229 230 230 230 230 231 232 232 232 232 231 230 228 227 225 224 223 223 223 224 225 226 227 229 231 232 233 232 233 236 238 240 243 245 246 246 247 249 251 254 255 257 258 259 260 261 261 260 258 258 259 260 262 263 265 266 267 268 269 270 271 273 275 277 278 279 280 282 284 285 287 289 290 291 292 293
214 216 219 221 223 224 225 226 227 228 231 232 231 231 230 229 229 230 230 229 228 227 226 225 224 222 222 221 221 223 225 226 227 229 231 232 233 234 234 237 240 243 245 246 246 245 246 248 250 253 255 258 259 260 261 262 262 261 260 260 260 261 262 263 264 266 267 268 268 269 271 273 275 276 277 279 280 282 284 286 287 289 290 291 292 293
218 219 221 223 224 224 224 224 224 226 229 230 230 229 228 227 226 226 226 225 225 224 224 223 222 220 220 220 220 222 225 226 227 228 230 232 234 235 237 239 241 244 245 246 246 246 246 247 249 251 253 255 256 257 257 257 259 263 265 266 264 263 263 264 265 266 267 267 268 270 271 273 274 276 277 279 281 282 284 286 287 289 290 291 293 293
219 220 221 222 223 222 221 220 221 223 225 228 228 227 225 224 222 222 222 222 222 221 221 220 220 219 219 219 220 222 224 225 226 228 230 233 235 237 239 241 243 244 245 246 246 246 246 247 249 250 252 253 254 254 255 258 262 267 270 270 268 266 265 265 266 267 267 268 269 270 272 273 274 276 277 279 281 283 285 286 287 289 290 292 293 293
219 220 221 221 221 220 218 217 218 220 222 225 227 226 224 222 220 218 218 217 216 216 216 217 217 216 217 219 220 221 223 225 226 228 231 234 237 239 240 242 243 244 245 245 246 246 247 248 249 250 251 253 255 257 259 262 266 269 270 271 270 268 267 266 266 267 268 269 270 271 272 273 275 276 278 280 282 284 285 287 288 289 291 292 293 293
218 218 219 219 218 216 215 214 214 216 219 222 225 225 224 221 217 214 212 211 211 211 212 212 214 215 216 218 219 221 223 225 227 229 232 235 238 240 241 242 244 245 246 246 247 247 248 249 250 251 252 254 256 258 261 263 265 267 268 269 268 267 266 266 266 267 268 269 271 272 274 275 277 278 280 282 283 285 286 288 289 291 292 293 293 293
214 213 214 215 215 215 214 213 212 213 215 218 220 221 219 215 211 208 206 206 207 208 208 210 212 215 216 217 219 222 224 226 228 230 232 235 238 241 243 244 245 246 247 247 248 249 250 251 252 253 254 255 257 258 260 262 264 265 266 267 267 266 266 266 266 267 269 270 272 274 275 277 279 280 281 283 284 286 287 289 291 292 293 293 293 292
205 202 201 202 206 210 211 209 209 209 211 213 213 212 209 206 205 205 204 204 204 205 207 209 212 214 216 218 220 223 225 226 229 231 234 237 240 242 245 246 247 248 249 250 250 251 252 253 254 255 256 257 258 259 260 262 263 264 265 266 266 266 266 267 267 268 270 272 274 275 277 279 280 281 283 284 286 287 289 290 292 292 293 292 292 292
195 189 185 181 183 192 198 201 202 203 204 206 204 202 201 201 202 203 203 203 203 204 206 210 213 215 218 220 222 225 227 229 231 234 237 239 242 245 247 249 250 251 252 253 253 254 254 255 256 257 257 257 258 258 260 261 262 264 265 266 266 266 267 268 269 270 272 273 275 277 278 279 281 283 284 286 287 289 290 290 291 291 291 292 293 294
186 179 177 175 176 180 186 192 197 197 196 197 198 198 199 199 199 201 203 204 205 207 209 212 215 218 221 223 225 228 230 232 234 237 240 243 246 248 250 252 253 253 254 254 255 256 256 256 257 257 257 257 257 258 259 261 262 264 265 265 266 267 268 269 270 272 273 275 276 277 279 280 282 284 285 287 288 289 289 289 290 291 292 293 294 295
182 178 177 178 179 180 184 187 191 191 191 193 194 196 197 198 199 201 204 207 209 211 213 216 219 221 224 226 228 231 233 236 238 241 244 247 249 252 253 254 255 255 255 256 256 257 257 257 257 257 257 257 257 258 259 261 262 263 264 265 267 268 269 270 272 273 274 276 277 278 280 282 283 285 286 287 287 288 289 290 291 292 293 294 295 296
182 179 178 179 180 183 186 188 189 190 192 194 194 195 197 199 201 203 206 209 212 214 217 220 223 225 228 230 233 235 238 241 244 246 249 251 254 255 257 257 257 257 256 256 256 256 256 257 257 257 257 257 257 258 259 261 262 263 265 266 267 268 270 271 272 274 276 277 278 280 281 283 284 285 286 287 288 289 290 291 292 293 294 295 296 297
184 181 180 180 182 184 187 189 191 193 194 195 197 198 200 202 204 206 209 213 215 218 221 225 228 230 233 235 237 239 242 245 248 250 253 254 255 255 256 257 256 255 254 254 254 254 254 254 255 255 256 256 257 258 259 261 262 264 266 267 268 270 271 273 274 276 277 278 280 281 282 283 284 285 286 288 289 291 292 292 293 294 295 296 297 298
186 184 183 184 186 187 189 191 193 195 197 197 199 201 204 206 208 211 214 217 219 221 224 228 231 234 236 238 241 243 246 249 251 252 253 254 254 254 254 254 253 251 251 250 251 251 252 252 253 254 255 256 258 259 260 262 263 265 267 268 270 272 273 275 276 277 278 279 280 281 282 283 285 287 288 290 291 292 292 293 294 295 296 297 298 299
188 187 187 188 189 191 193 194 196 198 200 201 202 205 207 210 213 215 218 221 222 224 227 230 233 236 239 242 245 247 248 249 250 251 252 253 253 252 251 249 248 247 247 248 249 249 250 251 252 254 255 256 257 259 260 262 264 266 268 270 271 273 274 275 276 277 278 279 281 282 284 285 287 289 290 291 292 292 293 294 295 296 297 298 299 300
190 190 190 191 192 194 196 198 200 202 203 205 206 208 210 213 216 219 222 225 227 229 231 233 236 239 241 244 245 246 246 246 248 250 250 250 249 248 246 246 247 246 245 246 247 248 248 250 251 252 254 255 257 259 261 263 265 267 269 271 272 273 274 276 277 278 279 281 283 285 286 288 289 290 291 292 292 293 294 295 296 297 297 298 300 301
Height
10564 10570 10580 10589 10594 10598 10601 10605 10609 10611 10612 10614 10618 10620 10623 10627 10630 10634 10636 10639 10642 10645 10647 10650 10657 10667 10675 10681 10685 10688 10690 10693 10697 10701 10707 10712 10716 10719 10721 10719 10713 10712 10712 10711 10712 10714 10716 10718 10719 10721 10722 10724 10725 10727 10729 10729 10731 10732 10734 10735 10736 10738 10740 10741 10742 10743 10744 10744 10745 10746 10746 10746 10746 10746 10745 10745 10745 10745 10745 10744 10744 10743 10743 10743 10742 10742
10557 10568 10579 10584 10585 10588 10591 10596 10601 10604 10605 10607 10612 10614 10617 10621 10623 10627 10630 10634 10638 10640 10642 10644 10652 10664 10671 10677 10682 10685 10688 10691 10695 10703 10711 10716 10720 10722 10720 10713 10707 10707 10707 10707 10708 10709 10711 10712 10714 10716 10717 10719 10720 10722 10723 10725 10726 10727 10729 10730 10731 10733 10735 10736 10737 10738 10739 10740 10741 10742 10742 10743 10743 10743 10742 10742 10742 10741 10741 10740 10740 10740 10739 10739 10738 10738
10556 10568 10574 10574 10577 10580 10584 10589 10593 10597 10598 10601 10606 10608 10612 10614 10616 10619 10623 10628 10632 10635 10638 10640 10647 10660 10668 10673 10678 10682 10685 10688 10694 10703 10709 10713 10717 10717 10712 10705 10701 10701 10703 10703 10703 10704 10705 10707 10709 10711 10712 10714 10715 10716 10718 10720 10721 10723 10724 10725 10726 10728 10729 10731 10732 10733 10734 10735 10736 10737 10738 10738 10738 10739 10739 10739 10738 10738 10737 10736 10736 10736 10735 10734 10734 10733
10553 10562 10565 10566 10570 10573 10578 10583 10587 10591 10593 10597 10601 10604 10606 10608 10610 10612 10616 10621 10625 10629 10634 10635 10642 10655 10664 10669 10674 10678 10682 10686 10692 10700 10701 10700 10701 10703 10703 10699 10696 10697 10697 10697 10698 10699 10700 10702 10704 10706 10707 10708 10709 10711 10713 10715 10717 10718 10720 10721 10722 10723 10724 10725 10726 10728 10729 10730 10731 10732 10733 10733 10734 10734 10735 10735 10734 10734 10733 10732 10732 10732 10731 10730 10729 10729
10546 10553 10555 10558 10562 10566 10571 10576 10581 10586 10589 10593 10597 10599 10601 10602 10603 10604 10608 10615 10619 10624 10628 10630 10638 10651 10660 10666 10669 10673 10677 10682 10687 10691 10689 10687 10690 10696 10699 10694 10690 10691 10690 10690 10692 10694 10696 10697 10699 10700 10701 10702 10704 10705 10707 10709 10711 10713 10715 10716 10717 10718 10719 10720 10721 10722 10724 10724 10726 10727 10728 10728 10729 10730 10730 10730 10730 10729 10729 10728 10728 10728 10727 10726 10725 10724
10538 10544 10547 10550 10554 10558 10563 10570 10575 10580 10583 10587 10592 10596 10596 10596 10597 10597 10602 10608 10612 10618 10622 10627 10637 10649 10656 10661 10663 10666 10671 10676 10681 10681 10679 10683 10690 10694 10695 10689 10684 10684 10682 10684 10688 10690 10691 10693 10694 10695 10695 10696 10698 10700 10702 10704 10706 10708 10710 10711 10713 10714 10715 10716 10717 10717 10718 10719 10720 10721 10722 10723 10724 10724 10725 10724 10724 10724 10724 10724 10724 10723 10722 10722 10721 10720
10532 10538 10541 10544 10548 10552 10556 10563 10568 10572 10576 10581 10587 10590 10589 10589 10590 10591 10595 10600 10606 10612 10617 10625 10637 10645 10650 10655 10657 10659 10664 10669 10673 10674 10675 10682 10687 10688 10687 10681 10675 10674 10675 10680 10683 10685 10687 10688 10690 10691 10690 10691 10693 10695 10697 10699 10701 10703 10705 10707 10708 10710 10710 10711 10712 10712 10713 10714 10715 10716 10716 10718 10719 10719 10719 10719 10719 10719 10719 10719 10719 10718 10717 10717 10716 10715
10527 10532 10535 10539 10543 10547 10553 10559 10563 10566 10570 10576 10581 10582 10582 10583 10583 10584 10586 10591 10600 10607 10613 10623 10633 10639 10644 10649 10651 10653 10658 10663 10667 10669 10672 10678 10681 10679 10678 10673 10667 10667 10671 10675 10677 10679 10682 10684 10685 10686 10686 10687 10688 10690 10692 10694 10696 10698 10700 10702 10703 10705 10706 10706 10707 10707 10707 10708 10709 10710 10711 10712 10713 10713 10713 10713 10714 10714 10714 10714 10714 10714 10713 10712 10712 10711
10519 10526 10530 10532 10536 10543 10549 10554 10556 10559 10563 10570 10573 10573 10575 10576 10575 10577 10578 10584 10593 10600 10609 10621 10628 10633 10639 10643 10645 10648 10653 10658 10662 10665 10667 10671 10672 10671 10672 10668 10662 10663 10667 10670 10672 10675 10678 10680 10682 10682 10682 10684 10685 10687 10688 10690 10692 10693 10695 10697 10698 10699 10700 10701 10701 10701 10702 10703 10704 10705 10706 10707 10707 10707 10708 10708 10708 10709 10709 10709 10709 10709 10708 10708 10707 10706
10511 10518 10521 10524 10529 10536 10542 10546 10548 10552 10557 10562 10564 10565 10567 10568 10568 10569 10572 10579 10587 10596 10609 10619 10623 10629 10634 10636 10639 10644 10648 10651 10655 10658 10661 10664 10664 10664 10665 10661 10655 10658 10662 10664 10668 10672 10674 10678 10680 10681 10680 10681 10683 10684 10685 10686 10687 10688 10689 10691 10692 10693 10694 10695 10695 10696 10697 10698 10699 10700 10701 10701 10702 10702 10703 10703 10703 10703 10703 10703 10704 10704 10703 10703 10702 10701
10504 10509 10512 10516 10522 10529 10534 10537 10540 10545 10549 10553 10554 10556 10560 10561 10561 10564 10569 10575 10582 10597 10611 10615 10617 10623 10628 10631 10635 10639 10641 10643 10646 10649 10653 10656 10656 10656 10659 10657 10655 10656 10658 10661 10665 10669 10672 10676 10678 10679 10679 10679 10680 10681 10681 10682 10683 10683 10684 10685 10686 10687 10688 10689 10690 10691 10692 10692 10693 10694 10695 10696 10696 10697 10697 10697 10697 10697 10698 10698 10698 10698 10698 10697 10697 10696
10498 10503 10508 10512 10516 10522 10526 10530 10534 10537 10541 10546 10547 10548 10553 10555 10556 10559 10565 10571 10583 10601 10607 10606 10610 10618 10624 10629 10631 10633 10634 10636 10641 10643 10645 10648 10648 10650 10653 10654 10654 10657 10658 10660 10663 10666 10669 10672 10674 10675 10675 10676 10677 10677 10678 10679 10679 10679 10679 10680 10681 10682 10683 10684 10685 10686 10686 10687 10687 10688 10689 10690 10690 10691 10691 10691 10691 10691 10692 10691 10691 10691 10691 10691 10690 10690
10493 10498 10503 10506 10509 10515 10520 10524 10529 10531 10537 10542 10541 10542 10548 10551 10553 10557 10565 10574 10589 10600 10598 10598 10605 10614 10621 10625 10626 10628 10630 10632 10635 10637 10638 10641 10644 10646 10649 10650 10652 10654 10657 10658 10660 10662 10665 10667 10669 10670 10670 10671 10673 10673 10674 10675 10674 10675 10675 10676 10677 10677 10677 10679 10680 10680 10681 10681 10682 10682 10683 10684 10684 10685 10685 10685 10685 10685 10685 10685 10684 10684 10684 10684 10684 10684
10488 10492 10498 10501 10504 10510 10516 10521 10525 10530 10537 10540 10539 10541 10547 10550 10553 10561 10569 10578 10588 10591 10589 10591 10600 10610 10617 10620 10621 10624 10625 10626 10629 10631 10634 10637 10641 10643 10645 10648 10651 10651 10651 10654 10658 10659 10660 10662 10665 10665 10665 10666 10668 10669 10669 10670 10670 10671 10672 10672 10672 10672 10673 10674 10675 10675 10676 10677 10677 10677 10677 10678 10678 10679 10679 10680 10680 10679 10679 10679 10678 10678 10678 10678 10678 10678
10482 10488 10495 10498 10500 10507 10512 10516 10521 10525 10531 10534 10535 10538 10544 10549 10555 10562 10568 10575 10581 10583 10582 10585 10596 10607 10614 10615 10616 10618 10619 10620 10623 10626 10629 10634 10638 10641 10644 10648 10652 10651 10649 10651 10656 10657 10655 10656 10659 10660 10661 10662 10662 10664 10664 10665 10666 10666 10667 10667 10666 10666 10668 10669 10670 10671 10671 10672 10672 10672 10672 10673 10673 10673 10674 10674 10674 10674 10674 10673 10673 10673 10673 10672 10672 10672
10476 10482 10488 10490 10494 10500 10505 10509 10513 10516 10522 10526 10526 10531 10541 10548 10550 10554 10560 10567 10573 10575 10575 10580 10594 10604 10608 10609 10610 10612 10615 10616 10618 10621 10625 10630 10634 10641 10646 10648 10651 10653 10651 10649 10651 10652 10650 10651 10653 10655 10657 10657 10658 10659 10660 10660 10661 10661 10661 10661 10660 10661 10663 10664 10665 10666 10666 10666 10666 10666 10666 10667 10667 10668 10668 10668 10668 10668 10668 10668 10668 10667 10667 10667 10667 10667
10471 10476 10478 10481 10486 10491 10497 10502 10507 10512 10518 10522 10523 10531 10541 10541 10540 10547 10555 10560 10564 10567 10569 10578 10591 10599 10601 10603 10605 10608 10611 10613 10615 10618 10622 10626 10630 10636 10641 10643 10647 10650 10646 10643 10644 10645 10645 10647 10648 10650 10652 10653 10654 10656 10655 10654 10655 10656 10656 10655 10655 10656 10657 10658 10659 10660 10661 10661 10661 10661 10661 10662 10662 10662 10663 10663 10663 10663 10663 10663 10662 10662 10662 10661 10661 10661
10464 10468 10470 10474 10479 10483 10488 10495 10500 10505 10512 10519 10525 10532 10533 10530 10533 10542 10548 10553 10558 10563 10568 10576 10587 10594 10597 10600 10602 10605 10608 10611 10613 10615 10617 10620 10625 10628 10630 10635 10642 10642 10638 10637 10639 10639 10640 10641 10643 10645 10647 10648 10651 10653 10651 10649 10649 10651 10651 10650 10650 10651 10653 10653 10654 10655 10656 10655 10655 10656 10656 10656 10657 10657 10658 10658 10658 10657 10657 10657 10657 10657 10656 10656 10655 10655
10455 10460 10462 10466 10472 10476 10481 10486 10492 10500 10509 10517 10520 10519 10519 10522 10530 10539 10544 10551 10557 10561 10566 10573 10583 10590 10595 10598 10600 10602 10605 10608 10608 10608 10610 10613 10616 10619 10623 10626 10629 10629 10630 10634 10635 10635 10636 10636 10636 10638 10640 10642 10646 10648 10647 10644 10644 10645 10645 10645 10646 10647 10648 10649 10650 10650 10650 10650 10651 10651 10651 10652 10652 10652 10653 10652 10652 10652 10652 10652 10651 10651 10651 10650 10650 10649
10449 10453 10456 10460 10465 10469 10474 10481 10491 10500 10506 10509 10506 10506 10511 10519 10527 10535 10541 10547 10552 10557 10564 10569 10577 10587 10592 10594 10596 10598 10599 10601 10601 10601 10603 10605 10607 10611 10616 10617 10616 10617 10621 10627 10629 10630 10631 10630 10629 10631 10634 10637 10640 10642 10641 10639 10639 10640 10640 10641 10642 10643 10644 10645 10646 10646 10646 10646 10646 10646 10646 10647 10647 10647 10647 10647 10647 10647 10647 10646 10646 10645 10645 10645 10644 10643
10443 10448 10451 10455 10460 10466 10473 10484 10493 10497 10498 10500 10502 10505 10513 10521 10526 10529 10534 10541 10547 10554 10560 10564 10574 10584 10586 10587 10590 10591 10592 10593 10595 10597 10598 10600 10603 10606 10609 10610 10610 10612 10616 10620 10623 10625 10625 10625 10625 10626 10628 10631 10634 10636 10636 10635 10635 10635 10636 10637 10638 10639 10640 10641 10641 10641 10641 10642 10641 10641 10642 10642 10642 10642 10642 10642 10641 10641 10641 10640 10640 10640 10639 10639 10639 10638
10440 10444 10447 10451 10459 10469 10477 10481 10483 10484 10487 10493 10498 10504 10511 10517 10519 10522 10529 10538 10545 10552 10557 10561 10570 10577 10578 10580 10584 10584 10585 10587 10590 10593 10594 10596 10599 10602 10604 10605 10607 10610 10615 10618 10620 10621 10622 10621 10621 10622 10623 10626 10629 10630 10630 10630 10630 10631 10632 10633 10634 10634 10636 10636 10637 10637 10637 10637 10637 10637 10637 10637 10637 10637 10636 10636 10636 10635 10635 10635 10635 10634 10634 10633 10633 10632
10435 10439 10443 10449 10458 10464 10467 10469 10472 10476 10481 10486 10491 10496 10501 10506 10510 10517 10528 10536 10540 10547 10553 10558 10566 10570 10571 10575 10578 10578 10580 10583 10586 10589 10591 10593 10595 10597 10599 10602 10604 10608 10612 10616 10616 10616 10616 10616 10616 10617 10620 10622 10623 10623 10624 10625 10626 10626 10627 10627 10628 10629 10631 10632 10632 10632 10632 10632 10632 10632 10632 10632 10632 10631 10631 10630 10630 10629 10629 10629 10629 10629 10628 10627 10626 10626
10430 10434 10439 10446 10452 10454 10456 10461 10466 10470 10474 10479 10486 10492 10496 10502 10509 10516 10524 10528 10531 10538 10545 10552 10560 10564 10566 10570 10573 10574 10577 10580 10583 10586 10588 10589 10590 10592 10594 10597 10600 10604 10607 10610 10610 10609 10610 10610 10611 10614 10616 10617 10618 10618 10619 10620 10621 10622 10622 10622 10623 10624 10626 10627 10627 10627 10627 10627 10627 10626 10626 10626 10626 10626 10625 10624 10624 10623 10624 10624 10623 10623 10622 10621 10620 10619
10427 10431 10436 10442 10446 10449 10452 10457 10460 10465 10472 10480 10487 10492 10496 10502 10506 10510 10515 10517 10521 10532 10540 10546 10553 10558 10560 10563 10567 10569 10573 10576 10579 10582 10583 10585 10586 10588 10590 10593 10596 10599 10602 10604 10604 10604 10605 10606 10608 10611 10612 10613 10613 10613 10613 10615 10617 10617 10617 10617 10617 10619 10620 10621 10621 10622 10622 10622 10621 10621 10620 10620 10620 10619 10619 10618 10618 10618 10618 10618 10617 10616 10615 10614 10613 10612
10423 10427 10433 10438 10443 10447 10451 10456 10461 10467 10474 10480 10485 10489 10493 10497 10500 10505 10508 10511 10519 10531 10537 10542 10550 10553 10554 10558 10561 10564 10568 10572 10574 10576 10577 10579 10581 10584 10587 10590 10592 10595 10597 10598 10599 10600 10602 10603 10605 10607 10608 10608 10607 10607 10608 10610 10612 10612 10611 10611 10612 10614 10615 10616 10617 10617 10617 10616 10615 10615 10615 10615 10614 10613 10612 10612 10612 10612 10612 10612 10611 10610 10609 10608 10607 10606
10420 10424 10429 10433 10438 10443 10447 10453 10458 10463 10468 10475 10480 10485 10489 10493 10496 10499 10501 10508 10518 10526 10531 10539 10545 10547 10550 10554 10557 10560 10563 10566 10568 10570 10571 10573 10575 10579 10582 10585 10587 10589 10590 10592 10593 10595 10598 10600 10601 10602 10602 10603 10603 10603 10603 10605 10606 10605 10606 10607 10608 10609 10610 10611 10612 10612 10611 10610 10609 10609 10609 10608 10608 10607 10606 10606 10606 10606 10606 10605 10604 10603 10602 10601 10600 10599
10418 10422 10426 10430 10434 10438 10442 10448 10453 10457 10464 10471 10476 10480 10484 10487 10489 10492 10498 10507 10515 10520 10527 10535 10539 10541 10545 10550 10552 10555 10558 10560 10562 10563 10565 10567 10570 10574 10577 10580 10581 10583 10585 10586 10588 10590 10593 10595 10597 10597 10598 10600 10600 10598 10598 10599 10600 10600 10601 10603 10604 10605 10606 10606 10606 10605 10604 10604 10604 10604 10603 10603 10602 10601 10601 10600 10600 10599 10599 10598 10597 10596 10595 10594 10593 10592
10415 10418 10423 10428 10432 10436 10439 10445 10450 10456 10462 10468 10471 10475 10479 10482 10484 10489 10497 10504 10509 10515 10523 10529 10532 10536 10540 10543 10546 10549 10551 10553 10555 10558 10561 10564 10567 10570 10573 10575 10576 10578 10579 10581 10584 10586 10589 10591 10592 10592 10593 10594 10594 10594 10594 10594 10595 10596 10598 10599 10600 10601 10600 10600 10599 10599 10599 10599 10598 10598 10597 10597 10596 10595 10595 10594 10593 10592 10592 10591 10590 10589 10588 10587 10586 10584
10410 10413 10419 10425 10429 10433 10437 10443 10448 10453 10458 10463 10466 10470 10473 10477 10480 10485 10492 10497 10502 10509 10516 10521 10525 10529 10532 10536 10540 10543 10546 10549 10551 10555 10558 10561 10564 10566 10568 10570 10571 10573 10575 10578 10580 10582 10583 10585 10587 10587 10588 10588 10589 10589 10589 10590 10591 10593 10594 10595 10596 10595 10593 10593 10593 10593 10593 10593 10593 10592 10592 10591 10591 10589 10588 10587 10586 10585 10585 10584 10583 10582 10581 10580 10578 10577
10406 10411 10416 10421 10425 10430 10435 10440 10444 10448 10453 10457 10461 10465 10468 10471 10475 10479 10485 10491 10496 10504 10510 10514 10520 10524 10528 10532 10536 10540 10543 10545 10548 10551 10554 10557 10559 10560 10562 10564 10567 10569 10572 10573 10575 10576 10577 10579 10581 10582 10582 10583 10584 10584 10584 10585 10586 10588 10590 10590 10589 10588 10587 10587 10587 10587 10587 10587 10587 10587 10586 10586 10585 10583 10582 10581 10580 10579 10578 10577 10576 10575 10574 10572 10571 10569
10403 10409 10413 10417 10422 10427 10431 10435 10439 10443 10447 10451 10456 10460 10463 10466 10470 10474 10480 10487 10494 10500 10504 10510 10516 10520 10523 10526 10531 10535 10538 10541 10544 10547 10549 10551 10553 10554 10557 10560 10563 10566 10567 10569 10570 10570 10572 10574 10576 10576 10576 10577 10579 10579 10579 10580 10582 10583 10584 10583 10582 10582 10582 10582 10582 10582 10581 10581 10581 10581 10580 10580 10579 10577 10576 10575 10574 10573 10572 10571 10569 10568 10567 10565 10563 10561
10402 10406 10410 10414 10419 10422 10425 10429 10433 10436 10441 10447 10452 10456 10459 10462 10465 10470 10476 10484 10490 10494 10499 10505 10510 10512 10516 10520 10524 10528 10532 10536 10539 10541 10543 10545 10547 10550 10553 10556 10559 10562 10563 10564 10564 10565 10567 10569 10569 10570 10571 10573 10575 10573 10572 10574 10576 10577 10577 10577 10576 10576 10576 10576 10576 10576 10576 10576 10575 10575 10575 10574 10572 10571 10570 10569 10568 10566 10565 10564 10562 10561 10559 10557 10555 10553
10399 10402 10406 10410 10413 10415 10419 10423 10427 10431 10437 10443 10448 10451 10453 10456 10460 10465 10472 10478 10484 10489 10494 10499 10503 10506 10510 10514 10518 10522 10526 10530 10533 10535 10538 10540 10543 10547 10550 10552 10555 10557 10557 10558 10558 10560 10562 10563 10564 10565 10566 10568 10569 10566 10566 10568 10569 10570 10570 10571 10570 10570 10570 10570 10570 10570 10570 10570 10570 10569 10568 10567 10566 10565 10564 10563 10561 10560 10558 10557 10555 10553 10551 10549 10547 10545
10395 10398 10401 10405 10407 10410 10414 10419 10423 10429 10435 10438 10440 10443 10446 10450 10455 10460 10466 10472 10478 10483 10487 10492 10496 10500 10504 10508 10512 10517 10521 10525 10528 10531 10534 10537 10541 10544 10546 10547 10548 10549 10550 10552 10553 10555 10557 10557 10558 10559 10560 10562 10562 10561 10560 10561 10562 10563 10564 10564 10564 10564 10565 10565 10565 10565 10564 10564 10564 10563 10562 10561 10560 10559 10558 10556 10555 10553 10551 10550 10548 10546 10544 10542 10540 10537
10390 10393 10397 10400 10402 10406 10411 10417 10423 10427 10429 10431 10433 10437 10440 10444 10449 10454 10460 10466 10472 10476 10480 10485 10490 10494 10498 10503 10508 10513 10517 10521 10524 10527 10531 10534 10536 10538 10539 10539 10541 10543 10545 10546 10549 10550 10551 10551 10552 10553 10554 10555 10556 10556 10555 10555 10555 10556 10556 10557 10558 10559 10559 10559 10559 10559 10558 10558 10557 10556 10555 10554 10554 10553 10551 10549 10548 10546 10544 10542 10540 10538 10536 10534 10532 10529
10385 10389 10392 10395 10398 10402 10408 10413 10418 10420 10422 10425 10428 10431 10434 10438 10443 10448 10453 10458 10463 10468 10474 10479 10484 10489 10494 10499 10504 10508 10511 10515 10519 10523 10526 10527 10529 10531 10532 10533 10535 10538 10540 10541 10543 10545 10545 10546 10547 10548 10549 10550 10550 10550 10550 10549 10548 10549 10549 10551 10552 10553 10553 10553 10553 10553 10552 10552 10551 10550 10549 10548 10547 10546 10544 10543 10541 10539 10537 10535 10533 10531 10529 10526 10524 10521
10381 10384 10387 10390 10393 10398 10403 10407 10411 10414 10416 10418 10421 10425 10429 10433 10437 10442 10447 10451 10457 10463 10469 10474 10480 10485 10490 10495 10499 10503 10507 10511 10515 10518 10519 10520 10522 10524 10526 10528 10531 10533 10535 10536 10538 10539 10540 10541 10542 10543 10544 10544 10544 10544 10544 10543 10542 10542 10543 10545 10546 10546 10547 10547 10547 10547 10546 10545 10544 10543 10542 10541 10540 10539 10537 10536 10534 10532 10531 10529 10526 10524 10521 10518 10516 10513
10377 10380 10383 10386 10390 10395 10399 10402 10406 10408 10410 10411 10414 10419 10424 10428 10432 10437 10443 10449 10455 10460 10465 10470 10476 10481 10485 10490 10494 10498 10503 10507 10509 10510 10512 10514 10517 10520 10522 10524 10526 10528 10530 10531 10532 10533 10534 10536 10537 10538 10538 10537 10537 10537 10538 10537 10537 10538 10538 10539 10540 10540 10541 10541 10541 10541 10540 10539 10538 10537 10536 10535 10533 10532 10531 10529 10528 10526 10524 10521 10519 10516 10513 10510 10508 10505
10374 10378 10381 10385 10388 10392 10395 10398 10399 10401 10404 10406 10411 10416 10420 10424 10430 10435 10441 10447 10452 10456 10460 10465 10470 10475 10480 10484 10489 10494 10498 10500 10502 10505 10508 10511 10513 10515 10517 10519 10521 10522 10524 10526 10527 10528 10529 10530 10531 10532 10532 10532 10532 10532 10533 10534 10534 10533 10533 10534 10534 10534 10535 10535 10534 10534 10533 10532 10531 10530 10529 10528 10527 10525 10524 10522 10521 10519 10516 10514 10511 10508 10505 10502 10499 10496
10373 10376 10379 10382 10384 10388 10391 10393 10394 10397 10401 10405 10409 10413 10418 10423 10429 10435 10439 10442 10445 10450 10455 10460 10465 10470 10475 10480 10485 10489 10492 10493 10497 10501 10505 10507 10508 10510 10511 10513 10516 10517 10518 10520 10521 10522 10523 10524 10526 10526 10527 10527 10528 10528 10529 10530 10529 10529 10529 10529 10528 10528 10528 10528 10528 10528 10527 10526 10525 10524 10523 10521 10520 10519 10517 10515 10513 10511 10508 10505 10503 10500 10497 10494 10490 10487
10370 10372 10375 10378 10382 10385 10387 10390 10393 10396 10400 10404 10408 10413 10417 10422 10428 10431 10433 10436 10440 10446 10451 10456 10461 10466 10471 10476 10480 10483 10485 10489 10493 10497 10500 10501 10503 10504 10506 10509 10510 10512 10513 10515 10516 10517 10518 10519 10520 10521 10522 10522 10523 10524 10524 10525 10525 10524 10524 10523 10523 10522 10522 10522 10522 10522 10521 10520 10519 10518 10517 10515 10513 10511 10510 10508 10506 10503 10500 10497 10494 10491 10488 10485 10482 10478
10366 10369 10373 10377 10381 10384 10387 10390 10393 10397 10400 10403 10407 10411 10415 10419 10423 10426 10428 10433 10438 10443 10448 10453 10458 10462 10467 10471 10475 10477 10480 10485 10490 10492 10495 10497 10498 10500 10502 10503 10505 10507 10508 10509 10511 10512 10513 10513 10514 10515 10516 10517 10518 10518 10519 10519 10519 10519 10518 10518 10517 10516 10516 10516 10516 10516 10515 10514 10513 10512 10510 10508 10506 10504 10502 10500 10497 10495 10492 10489 10486 10483 10479 10476 10473 10470
10365 10368 10372 10376 10380 10384 10387 10389 10391 10394 10397 10401 10404 10408 10411 10416 10420 10423 10428 10432 10437 10441 10446 10451 10455 10459 10463 10467 10470 10473 10478 10483 10486 10487 10490 10493 10494 10496 10497 10499 10500 10502 10503 10504 10506 10506 10507 10508 10508 10509 10510 10511 10512 10512 10512 10513 10513 10513 10512 10511 10511 10511 10511 10511 10510 10510 10509 10508 10507 10505 10503 10500 10498 10496 10494 10492 10489 10487 10484 10481 10478 10475 10471 10468 10465 10461
10364 10367 10370 10374 10377 10380 10383 10386 10388 10391 10395 10399 10402 10406 10410 10415 10419 10424 10428 10432 10437 10441 10445 10449 10453 10457 10460 10464 10467 10471 10475 10478 10481 10483 10486 10488 10490 10492 10493 10494 10495 10497 10498 10499 10499 10499 10500 10501 10502 10502 10503 10504 10505 10505 10506 10507 10507 10507 10506 10505 10505 10505 10505 10505 10504 10503 10502 10501 10500 10498 10496 10493 10490 10488 10486 10484 10481 10479 10476 10473 10470 10467 10463 10460 10456 10452
10363 10366 10369 10372 10375 10377 10380 10382 10386 10390 10393 10397 10401 10405 10410 10415 10419 10423 10427 10432 10436 10440 10444 10447 10451 10454 10458 10461 10465 10469 10471 10474 10477 10480 10482 10484 10485 10486 10487 10488 10489 10491 10492 10492 10491 10492 10494 10495 10495 10496 10497 10497 10498 10499 10500 10501 10500 10500 10499 10499 10499 10499 10499 10498 10498 10497 10495 10494 10492 10491 10488 10486 10483 10480 10478 10476 10473 10471 10468 10465 10462 10459 10455 10451 10448 10444
10362 10365 10368 10372 10375 10378 10380 10383 10386 10389 10393 10397 10401 10405 10410 10414 10418 10422 10426 10430 10434 10438 10442 10445 10448 10452 10456 10460 10463 10466 10469 10471 10474 10476 10478 10479 10480 10481 10481 10482 10483 10483 10484 10484 10485 10486 10487 10488 10489 10490 10491 10492 10493 10494 10494 10494 10494 10494 10494 10494 10494 10493 10493 10492 10491 10490 10488 10486 10485 10483 10481 10478 10475 10473 10470 10468 10465 10463 10460 10457 10453 10450 10446 10442 10439 10435
10361 10364 10368 10371 10374 10377 10380 10383 10387 10390 10394 10398 10402 10405 10409 10413 10417 10421 10425 10428 10432 10437 10440 10443 10446 10450 10454 10457 10460 10462 10465 10467 10469 10471 10472 10473 10474 10474 10474 10475 10475 10476 10476 10477 10478 10480 10481 10482 10483 10485 10486 10486 10487 10488 10488 10488 10488 10488 10488 10488 10488 10487 10486 10485 10484 10483 10481 10479 10477 10475 10473 10471 10468 10466 10463 10460 10457 10454 10451 10448 10445 10441 10437 10433 10430 10426
10362 10365 10367 10370 10373 10376 10379 10383 10386 10390 10394 10398 10402 10406 10409 10413 10417 10420 10424 10427 10431 10435 10438 10441 10444 10447 10450 10453 10456 10458 10461 10463 10464 10465 10466 10467 10467 10468 10468 10468 10468 10469 10469 10471 10473 10475 10476 10477 10478 10479 10481 10481 10482 10482 10483 10483 10483 10483 10482 10482 10482 10481 10480 10479 10477 10475 10473 10472 10470 10468 10466 10464 10461 10459 10456 10452 10449 10446 10443 10439 10436 10432 10428 10425 10421 10417
10362 10365 10368 10370 10373 10377 10380 10384 10388 10391 10395 10399 10403 10406 10410 10414 10417 10420 10423 10426 10429 10432 10436 10439 10441 10444 10447 10449 10451 10454 10456 10457 10458 10459 10460 10461 10461 10462 10462 10462 10462 10463 10464 10466 10469 10470 10471 10472 10474 10475 10476 10477 10477 10477 10478 10478 10478 10477 10477 10476 10476 10475 10473 10472 10470 10468 10466 10464 10462 10460 10458 10456 10454 10451 10448 10445 10441 10438 10434 10431 10427 10423 10420 10416 10413 10409
10363 10366 10369 10372 10375 10378 10382 10386 10389 10392 10396 10399 10403 10406 10409 10413 10415 10418 10421 10424 10427 10430 10433 10436 10438 10440 10443 10445 10447 10448 10450 10451 10453 10454 10455 10456 10457 10457 10457 10457 10456 10457 10460 10463 10465 10466 10467 10469 10470 10471 10471 10472 10472 10473 10473 10473 10472 10472 10471 10470 10469 10468 10467 10465 10463 10461 10459 10457 10455 10453 10451 10448 10446 10443 10440 10437 10434 10430 10426 10422 10419 10415 10411 10408 10405 10401